Home   Weather   Odense   Past weeks
Flag for Denmark

Past Weather in Odense, Denmark — Yesterday and Last 2 Weeks

Now
37 °F

Passing clouds.


Feels Like: 31 °F
Forecast: 50 / 34 °F
Wind: 9 mph from West

Location: Soenderborg Lufthavn

Current Time: Apr 3, 2020 at 10:29:45 pm

Latest Report: Apr 3, 2020 at 9:20 pm


Visibility: N/A

Pressure: 29.98 "Hg

Humidity: 87%

Dew Point: 34 °F

Location of OdenseLocation

Past Weather in Odense — Graph

°F

Odense Temperature Yesterday

Maximum temperature yesterday: 50 °F (at 11:20 am)
Minimum temperature yesterday: 41 °F (at 10:20 pm)
Average temperature yesterday: 45 °F

High & Low Weather Summary for the Past Weeks

 TemperatureHumidityPressure
High50 °F (Apr 2, 11:20 am)93% (Mar 19, 11:50 pm)30.69 "Hg (Mar 19, 11:50 pm)
Low32 °F (Mar 31, 6:21 am)31% (Mar 23, 11:20 am)29.53 "Hg (Apr 2, 5:50 pm)
Average41 °F64%30.31 "Hg
* Reported Mar 19 7:20 pm — Apr 3 8:50 pm, Odense. Weather by CustomWeather, © 2020

Note: Actual official high and low records may vary slightly from our data, if they occured in-between our weather recording intervals... More about our weather records

Odense Weather History for the Previous 24 Hours

Scroll right to see more
 ConditionsComfort  
Time TempWeatherWind HumidityBarometerVisibility
8:50 pm
Fri, Apr 3
37 °FPassing clouds.7 mph81%29.98 "HgN/A
8:20 pm39 °FChilly.8 mph75%29.98 "HgN/A
7:50 pm41 °FBroken clouds.10 mph66%29.95 "HgN/A
7:20 pm39 °FPartly sunny.14 mph75%29.95 "HgN/A
6:50 pm41 °FSprinkles. Broken clouds.13 mph70%29.95 "HgN/A
6:20 pm43 °FPartly sunny.10 mph66%29.92 "HgN/A
5:50 pm43 °FPartly sunny.14 mph61%29.92 "HgN/A
5:20 pm43 °FLight rain. Broken clouds.17 mph61%29.92 "HgN/A
4:50 pm46 °FScattered clouds.16 mph46%29.89 "HgN/A
4:20 pm46 °FPassing clouds.15 mph46%29.89 "HgN/A
3:50 pm48 °FScattered clouds.15 mph40%29.86 "HgN/A
3:20 pm46 °FPassing clouds.16 mph46%29.86 "HgN/A
2:50 pm46 °FPassing clouds.13 mph57%29.86 "HgN/A
2:20 pm46 °FScattered clouds.18 mph57%29.86 "HgN/A
1:50 pm46 °FPassing clouds.17 mph57%29.83 "HgN/A
1:20 pm43 °FScattered clouds.16 mph61%29.83 "HgN/A
12:50 pm46 °FSprinkles. Scattered clouds.20 mph50%29.83 "HgN/A
12:20 pm46 °FPassing clouds.21 mph43%29.80 "HgN/A
11:50 am46 °FPassing clouds.18 mph50%29.80 "HgN/A
11:20 am45 °FScattered clouds.15 mph57%29.77 "HgN/A
10:50 am45 °FPassing clouds.17 mph49%29.77 "HgN/A
10:20 am43 °FScattered clouds.17 mph61%29.74 "HgN/A
9:20 am41 °FPassing clouds.13 mph76%29.74 "HgN/A
8:50 am41 °FScattered clouds.15 mph70%29.71 "HgN/A
8:20 am39 °FScattered clouds.13 mph81%29.71 "HgN/A
7:50 am39 °FScattered clouds.13 mph75%29.68 "HgN/A
7:20 am37 °FScattered showers. Scattered clouds.14 mph81%29.68 "HgN/A
6:50 am37 °FScattered clouds.12 mph87%29.68 "HgN/A
6:20 am37 °FRain showers. Partly cloudy.17 mph87%29.68 "Hg3 mi
5:50 am37 °FPassing clouds.15 mph81%29.65 "HgN/A
5:20 am39 °FLight rain. Partly cloudy.12 mph81%29.65 "HgN/A
4:50 am39 °FPassing clouds.13 mph81%29.62 "HgN/A
4:20 am39 °FPassing clouds.10 mph81%29.62 "HgN/A
3:50 am37 °FSprinkles. Passing clouds.10 mph87%29.62 "HgN/A
3:20 am39 °FSprinkles. Passing clouds.12 mph81%29.62 "HgN/A
2:50 am39 °FPassing clouds.13 mph81%29.59 "HgN/A
1:20 am41 °FSprinkles. Passing clouds.17 mph70%29.59 "HgN/A
12:50 am41 °FPassing clouds.16 mph66%29.56 "HgN/A
12:20 am41 °FPassing clouds.15 mph61%29.59 "HgN/A
11:50 pm
Thu, Apr 2
41 °FPassing clouds.14 mph61%29.59 "HgN/A
11:20 pm41 °FPassing clouds.16 mph61%29.56 "HgN/A
10:50 pm41 °FPassing clouds.13 mph66%29.56 "HgN/A
10:20 pm41 °FPartly cloudy.14 mph61%29.56 "HgN/A
Weather by CustomWeather, © 2020

See weather overview

Advertising